Stations météo

réclame
Mon MeteoGroup
Quimper, France (7201): Température de l'air & dewpoint: 14.10.2018 21:00:00 - 20.10.2018 21:00:00 (CEST)Quimper, France (7201): Température de l'air 5cm: 14.10.2018 21:00:00 - 20.10.2018 21:00:00 (CEST)Quimper, France (7201): Température de l'air -20cm: 14.10.2018 21:00:00 - 20.10.2018 21:00:00 (CEST)Quimper, France (7201): Vitesse du vent & gusts: 14.10.2018 21:00:00 - 20.10.2018 21:00:00 (CEST)Quimper, France (7201): Direction du vent: 14.10.2018 21:00:00 - 20.10.2018 21:00:00 (CEST)Quimper, France (7201): reduced air pressure: 14.10.2018 21:00:00 - 20.10.2018 21:00:00 (CEST)Quimper, France (7201): visibility: 14.10.2018 21:00:00 - 20.10.2018 21:00:00 (CEST)Quimper, France (7201): Ensoleillement: 14.10.2018 21:00:00 - 20.10.2018 21:00:00 (CEST)Quimper, France (7201): Quantités de précipitations: 14.10.2018 21:00:00 - 20.10.2018 21:00:00 (CEST)
Date & Time tt [°C] td [°C] tt 5cm [°C] tt -20cm [°C] ff [km/h] ff [knt] fx [km/h] fx [knt] dd ppp [hPa] vv [km] sd [min] rr [mm]
20.10.2018 21:00:00 12,5 8,4 10,9 14,6 11 6 18 10 NE 1029,4 41 0 0,0
20.10.2018 20:00:00 13,4 9,1 11,6 14,5 12 6 21 11 ENE 1029,0 60 0 0,0
20.10.2018 19:00:00 15,5 9,8 15,8 14,4 10 5 23 12 NNE 1028,6 58 55 0,0
20.10.2018 18:00:00 17,7 10,8 20,5 14,3 11 6 21 11 NE 1028,6 38 60 0,0
20.10.2018 17:00:00 18,4 9,5 21,1 14,2 12 7 22 12 ENE 1028,7 60 60 0,0
20.10.2018 16:00:00 18,3 9,9 21,4 14,1 15 8 24 13 NE 1029,2 50 60 0,0
20.10.2018 15:00:00 18,2 10,3 20,5 14,1 14 8 29 15 NE 1029,6 40 60 0,0
20.10.2018 14:00:00 17,2 10,1 18,3 14,0 18 10 29 16 ENE 1030,3 27 60 0,0
20.10.2018 13:00:00 16,1 10,8 17,6 14,1 15 8 31 17 E 1030,7 20 60 0,0
20.10.2018 12:00:00 15,0 10,8 16,1 14,1 17 9 27 15 ENE 1031,1 16 60 0,0
20.10.2018 11:00:00 13,1 10,6 14,0 14,2 12 7 19 10 NE 1031,1 14 60 0,0
20.10.2018 10:00:00 10,8 9,7 8,4 14,2 10 6 18 10 NNE 1030,6 9 53 0,2
20.10.2018 09:00:00 9,5 8,9 6,1 14,3 9 5 15 8 NE 1029,9 8 0 0,0
20.10.2018 08:00:00 9,8 9,2 6,5 14,4 9 5 13 7 NE 1029,1 8 0 0,0
20.10.2018 07:00:00 9,1 8,2 8,1 14,5 8 5 17 9 ENE 1028,7 7 0 0,0
20.10.2018 06:00:00 10,0 9,2 9,0 14,5 12 7 16 9 ENE 1028,5 9 0 0,0
20.10.2018 05:00:00 10,2 9,3 9,1 14,6 11 6 19 10 ENE 1028,1 10 0 0,2
20.10.2018 04:00:00 10,1 9,3 7,6 14,7 11 6 16 9 ENE 1028,1 11 0 0,0
20.10.2018 03:00:00 10,2 9,0 7,7 14,7 6 3 18 10 NNE 1027,8 10 0 0,0
20.10.2018 02:00:00 11,4 9,6 10,6 14,8 10 6 21 11 ENE 1027,6 19 0 0,0
20.10.2018 01:00:00 11,9 10,3 10,7 14,8 13 7 21 11 ENE 1027,4 24 0 0,0
20.10.2018 00:00:00 11,6 10,2 9,8 14,9 12 7 21 11 NE 1027,6 19 0 0,0
19.10.2018 23:00:00 11,6 9,8 10,2 14,9 7 4 17 9 NNE 1027,5 18 0 0,0
19.10.2018 22:00:00 11,8 9,5 9,8 14,9 9 5 13 7 NNE 1027,3 20 0 0,0
19.10.2018 21:00:00 13,0 10,0 12,1 14,9 11 6 19 10 NE 1026,6 30 0 0,0
19.10.2018 20:00:00 14,1 10,5 13,2 14,8 13 7 25 14 NE 1026,2 32 0 0,0
19.10.2018 19:00:00 15,5 11,1 15,1 14,7 17 9 30 16 NE 1025,0 36 54 0,0
19.10.2018 18:00:00 17,1 11,4 19,0 14,6 21 11 31 17 NE 1024,4 46 60 0,0
19.10.2018 17:00:00 18,1 11,6 20,7 14,5 16 9 27 14 NE 1023,8 35 60 0,0
19.10.2018 16:00:00 18,5 12,3 20,5 14,4 14 7 32 17 ENE 1023,8 20 60 0,0
19.10.2018 15:00:00 18,0 12,2 20,6 14,4 16 9 32 17 NE 1024,2 19 60 0,0
19.10.2018 14:00:00 17,5 12,4 19,0 14,3 14 8 29 16 NE 1024,3 13 60 0,0
19.10.2018 13:00:00 16,7 12,2 17,7 14,3 16 9 36 19 ENE 1024,4 9 60 0,0
19.10.2018 12:00:00 15,5 11,7 16,7 14,4 24 13 34 18 NE 1024,4 8 60 0,0
19.10.2018 11:00:00 14,1 11,8 14,4 14,4 17 9 29 16 NE 1024,5 15 60 0,0
19.10.2018 10:00:00 12,4 11,5 10,9 14,5 14 8 29 16 NE 1024,2 13 55 0,0
19.10.2018 09:00:00 10,8 10,3 9,8 14,5 11 6 18 10 NNE 1023,9 11 0 0,0
19.10.2018 08:00:00 10,8 10,3 10,0 14,6 12 6 17 9 NNE 1023,1 9 0 0,0
19.10.2018 07:00:00 10,9 10,3 10,0 14,7 11 6 14 8 NNE 1022,9 9 0 0,2
19.10.2018 06:00:00 11,0 10,4 10,1 14,7 11 6 16 8 NNE 1022,8 9 0 0,0
19.10.2018 05:00:00 11,6 10,7 10,6 14,8 10 5 17 9 NE 1022,9 11 0 0,0
19.10.2018 04:00:00 11,7 10,6 10,8 14,8 11 6 16 9 NE 1023,2 13 0 0,0
19.10.2018 03:00:00 12,2 10,9 10,6 14,8 9 5 14 7 NE 1023,2 18 0 0,0
19.10.2018 02:00:00 12,7 11,1 11,8 14,9 11 6 24 13 ENE 1023,2 20 0 0,0
19.10.2018 01:00:00 13,1 11,3 12,5 14,9 14 8 27 15 ENE 1023,1 38 0 0,0
19.10.2018 00:00:00 13,2 11,4 12,5 14,9 13 7 23 13 NE 1022,9 39 0 0,0
18.10.2018 23:00:00 13,8 11,5 12,9 14,9 13 7 24 13 NE 1022,8 39 0 0,0
18.10.2018 22:00:00 14,2 11,5 13,1 14,9 16 9 26 14 NE 1022,7 45 0 0,0
18.10.2018 21:00:00 14,4 11,5 13,7 14,9 14 7 28 15 ENE 1022,6 51 0 0,0
18.10.2018 20:00:00 15,1 11,7 14,4 14,8 16 8 31 17 NE 1022,2 47 0 0,0
18.10.2018 19:00:00 16,3 11,9 16,5 14,7 20 11 39 21 NE 1021,5 52 60 0,0
18.10.2018 18:00:00 17,7 11,9 19,2 14,6 24 13 39 21 NE 1021,2 60 60 0,0
18.10.2018 17:00:00 18,6 12,1 20,7 14,5 23 12 44 24 NE 1021,2 60 60 0,0
18.10.2018 16:00:00 19,3 12,6 21,5 14,3 23 12 40 21 NE 1021,2 60 60 0,0
18.10.2018 15:00:00 19,4 13,1 22,0 14,3 21 11 35 19 NE 1021,5 56 60 0,0
18.10.2018 14:00:00 19,6 13,8 21,5 14,2 15 8 29 16 ENE 1021,9 49 60 0,0
18.10.2018 13:00:00 19,5 13,7 18,3 14,2 13 7 28 15 ENE 1022,2 20 58 0,0
18.10.2018 12:00:00 16,8 13,3 15,4 14,2 16 9 26 14 ENE 1022,5 29 0 0,0
18.10.2018 11:00:00 15,4 13,1 14,2 14,2 16 9 28 15 NE 1022,7 19 0 0,0
18.10.2018 10:00:00 14,6 13,0 13,5 14,2 16 9 29 16 NE 1022,3 17 0 0,0
18.10.2018 09:00:00 14,2 12,9 13,4 14,2 15 8 27 15 NE 1021,7 13 0 -
18.10.2018 08:00:00 14,1 12,8 13,0 14,3 15 8 29 16 NE 1021,3 11 0 0,0
18.10.2018 07:00:00 13,6 12,5 12,7 14,3 18 10 29 16 NE 1021,0 6 0 0,2
18.10.2018 06:00:00 13,3 12,2 12,3 14,3 16 8 30 16 NE 1021,0 10 0 0,0
18.10.2018 05:00:00 13,0 12,2 10,8 14,4 16 9 28 15 NE 1020,9 14 0 0,0
18.10.2018 04:00:00 11,5 11,2 9,4 14,4 11 6 18 10 NE 1021,0 14 0 0,0
18.10.2018 03:00:00 10,4 10,1 9,2 14,4 9 5 17 9 NNE 1021,1 7 0 0,0
18.10.2018 02:00:00 10,8 10,5 9,5 14,5 9 5 16 9 NNE 1021,2 8 0 0,0
18.10.2018 01:00:00 11,3 11,0 10,2 14,5 10 5 17 9 NE 1021,2 8 0 0,0
18.10.2018 00:00:00 11,5 11,2 10,2 14,5 9 5 15 8 NNE 1021,2 7 0 0,0
17.10.2018 23:00:00 12,0 11,5 10,6 14,5 8 4 18 10 NNE 1020,8 6 0 0,0
17.10.2018 22:00:00 13,2 12,7 12,8 14,4 11 6 17 9 NNE 1020,3 14 0 0,0
17.10.2018 21:00:00 13,3 12,8 13,0 14,4 8 4 14 8 N 1019,9 9 0 0,4
17.10.2018 20:00:00 13,6 13,0 13,3 14,4 3 2 10 5 NNE 1019,2 20 0 0,0
17.10.2018 19:00:00 13,7 13,1 13,6 14,3 6 3 10 6 N 1018,5 51 0 0,0
17.10.2018 18:00:00 14,2 13,7 13,9 14,3 4 2 13 7 W 1018,1 13 0 0,0
17.10.2018 17:00:00 14,4 14,1 14,4 14,2 13 7 18 10 SW 1017,8 14 0 0,0
17.10.2018 16:00:00 14,8 14,6 14,2 14,2 6 4 11 6 S 1017,7 14 0 0,2
17.10.2018 15:00:00 14,3 14,1 14,1 14,1 7 4 13 7 SSE 1017,9 4,5 0 0,0
17.10.2018 14:00:00 14,1 13,9 14,2 14,1 5 3 11 6 SE 1018,3 6 0 0,0
17.10.2018 13:00:00 14,0 13,8 13,5 14,1 4 2 8 4 ESE 1018,5 11 0 0,0
17.10.2018 12:00:00 13,0 12,8 12,8 14,2 5 3 8 4 E 1018,5 3,2 0 0,0
17.10.2018 11:00:00 12,2 12,0 11,6 14,2 2 1 9 5 E 1018,7 7 0 0,0
17.10.2018 10:00:00 11,1 10,9 10,1 14,3 5 3 9 5 E 1018,6 1,3 21 0,0
17.10.2018 09:00:00 10,0 9,8 9,3 14,3 3 2 6 4 E 1018,4 - 0 0,0
17.10.2018 08:00:00 9,8 9,7 8,8 14,3 4 2 7 4 ENE 1018,4 - 0 0,2
17.10.2018 07:00:00 9,0 8,9 7,8 14,4 4 2 6 4 NE 1018,4 0,1 0 0,0
17.10.2018 06:00:00 9,4 9,3 7,4 14,5 2 1 4 2 NNE 1018,5 0,1 0 0,0
17.10.2018 05:00:00 9,9 9,7 8,8 14,5 0 0 4 2 N 1018,5 0,1 0 0,0
17.10.2018 04:00:00 10,4 10,2 7,8 14,6 3 2 5 3 N 1018,7 0,1 0 0,0
17.10.2018 03:00:00 9,0 8,7 7,5 14,7 3 2 6 4 E 1019,2 0,1 0 0,2
17.10.2018 02:00:00 9,0 8,7 6,6 14,8 2 1 5 3 NE 1019,6 0,1 0 0,0
17.10.2018 01:00:00 9,1 8,8 6,4 14,9 4 2 5 3 ESE 1019,8 0,2 0 0,0
17.10.2018 00:00:00 9,6 9,1 6,4 15,0 3 1 4 2 NNE 1019,9 0,2 0 0,0
16.10.2018 23:00:00 9,9 9,3 6,7 15,0 4 2 5 3 SSE 1019,8 0,2 0 0,0
16.10.2018 22:00:00 10,5 9,6 7,5 15,0 0 0 11 6 N 1019,8 10 0 0,0
16.10.2018 21:00:00 11,2 9,8 9,8 15,0 6 3 9 5 S 1019,7 6 0 0,0
16.10.2018 20:00:00 12,4 9,9 11,0 14,9 5 3 9 5 SSW 1019,5 55 2 0,0
16.10.2018 19:00:00 14,5 10,5 14,8 14,8 4 2 14 7 WSW 1019,0 60 60 0,0
16.10.2018 18:00:00 14,8 10,2 15,2 14,8 9 5 18 10 WSW 1018,8 60 24 0,0
16.10.2018 17:00:00 15,7 10,2 15,7 14,7 13 7 21 11 WSW 1018,5 60 20 0,0
16.10.2018 16:00:00 15,6 9,5 15,9 14,6 14 8 20 11 W 1018,4 55 30 0,0
16.10.2018 15:00:00 16,4 10,3 16,7 14,6 16 9 23 13 W 1018,2 60 35 0,0
16.10.2018 14:00:00 15,6 10,1 15,8 14,5 8 4 18 10 W 1018,2 58 24 0,0
16.10.2018 13:00:00 16,1 11,0 15,1 14,5 10 5 17 9 WSW 1018,2 60 16 0,0
16.10.2018 12:00:00 15,3 10,7 17,0 14,5 6 4 13 7 WSW 1017,7 44 55 0,0
16.10.2018 11:00:00 12,8 12,3 11,8 14,5 0 0 7 4 N 1017,6 11 20 0,0
16.10.2018 10:00:00 12,1 11,6 12,0 14,6 4 2 8 4 W 1017,1 7 4 0,0
16.10.2018 09:00:00 12,0 11,5 11,7 14,6 0 0 9 5 N 1016,3 6 0 0,0
16.10.2018 08:00:00 11,8 11,3 11,6 14,6 4 2 9 5 W 1015,8 10 0 0,0
16.10.2018 07:00:00 11,8 11,5 11,7 14,6 4 2 9 5 NW 1015,2 14 0 0,0
16.10.2018 06:00:00 11,8 11,5 11,4 14,7 4 2 9 5 N 1014,8 7 0 0,0
16.10.2018 05:00:00 11,8 11,5 11,4 14,7 6 3 12 7 NNW 1014,5 7 0 0,0
16.10.2018 04:00:00 11,6 11,3 9,5 14,8 4 2 7 4 NNW 1014,4 0,4 0 0,0
16.10.2018 03:00:00 11,7 11,4 11,3 14,8 2 1 14 8 N 1014,5 6 0 0,0
16.10.2018 02:00:00 11,6 11,3 10,6 14,8 8 4 11 6 WNW 1014,0 1,0 0 0,0
16.10.2018 01:00:00 11,6 11,1 10,8 14,8 6 3 11 6 N 1013,9 10 0 0,0
16.10.2018 00:00:00 12,0 11,5 11,8 14,9 8 4 16 9 NNW 1013,9 12 0 0,0
15.10.2018 23:00:00 12,0 11,5 11,7 14,9 9 5 17 9 N 1013,4 10 0 0,0
15.10.2018 22:00:00 11,9 11,3 9,8 14,9 8 4 15 8 N 1012,9 14 0 0,0
15.10.2018 21:00:00 12,1 11,3 9,7 14,8 8 5 14 8 N 1012,1 28 0 0,0
15.10.2018 20:00:00 12,0 10,9 10,0 14,9 5 3 12 7 N 1011,5 19 2 0,0
15.10.2018 19:00:00 13,5 11,5 13,5 14,8 10 6 16 9 NNW 1011,1 53 10 0,0
15.10.2018 18:00:00 14,1 12,0 14,6 14,7 10 6 20 11 N 1010,9 50 0 0,0
15.10.2018 17:00:00 14,1 12,0 14,4 14,7 14 7 19 11 NNW 1010,5 51 0 0,0
15.10.2018 16:00:00 14,5 12,0 15,2 14,7 12 7 20 11 NNW 1010,0 60 0 0,0
15.10.2018 15:00:00 14,2 11,9 14,9 14,6 14 8 20 11 NNW 1010,0 60 0 0,0
15.10.2018 14:00:00 13,8 11,7 14,3 14,6 8 5 23 12 N 1010,1 60 0 0,0
15.10.2018 13:00:00 13,3 11,7 13,7 14,6 15 8 24 13 NNW 1009,8 20 0 0,0
15.10.2018 12:00:00 12,9 11,6 13,4 14,6 17 9 23 12 NNW 1009,8 19 2 0,0
15.10.2018 11:00:00 13,1 12,0 12,9 14,7 10 6 21 11 NNW 1009,0 18 17 0,0
15.10.2018 10:00:00 12,1 11,2 11,5 14,7 9 5 15 8 N 1008,4 20 5 0,0
15.10.2018 09:00:00 11,6 10,7 11,0 14,8 9 5 13 7 NW 1007,9 13 0 0,0
15.10.2018 08:00:00 11,6 10,5 11,0 14,8 8 4 14 8 N 1007,5 20 0 0,0
15.10.2018 07:00:00 11,4 10,3 10,9 14,8 9 5 19 10 NW 1007,3 56 0 0,0
15.10.2018 06:00:00 11,4 10,6 10,9 14,9 9 5 16 9 NW 1007,0 47 0 0,0
15.10.2018 05:00:00 11,4 10,6 10,9 14,9 10 5 23 13 N 1007,0 57 0 0,0
15.10.2018 04:00:00 11,4 10,6 10,9 14,9 13 7 22 12 NNW 1007,2 54 0 0,0
15.10.2018 03:00:00 11,5 10,9 11,1 15,0 14 8 24 13 NW 1007,6 45 0 0,2
15.10.2018 02:00:00 11,5 10,9 11,1 15,0 16 9 26 14 NNW 1007,1 13 0 0,0
15.10.2018 01:00:00 11,6 10,8 11,3 15,1 17 9 25 14 NNW 1007,1 8 0 0,2
15.10.2018 00:00:00 11,8 10,9 11,3 15,1 14 8 24 13 NNW 1007,0 11 0 0,0
14.10.2018 23:00:00 11,9 10,8 11,3 15,1 16 9 23 13 NNW 1007,2 56 0 0,0
14.10.2018 22:00:00 11,7 10,3 11,2 15,1 13 7 24 13 N 1006,7 19 0 0,0
14.10.2018 21:00:00 12,0 10,6 11,4 15,1 13 7 23 12 N 1006,9 13 0 0,0

tt = Température de l'air
td = dewpoint
tt 5cm = Température de l'air 5cm
tt -20cm = Température de l'air -20cm
ff = Vitesse du vent
fx = gusts
dd = Direction du vent
ppp = reduced air pressure
vv = visibility
sd = Ensoleillement
rr = Quantités de précipitations

stations d'obs. à proximité